EW7304 Weather Reports


time (UTC)temp
F
wind
direction
speed
knots
gust
knots
rain 1hr
in
rain 24hr
in
rain mn
in
humidity
%
barometer
mb
20260504000035 75 212 0.0 2.6 0.00 0.00 0.00 50 1018.4
20260503234544 77 167 0.0 5.2 0.00 0.00 0.00 47 1018.5
20260503233032 77 119 0.0 2.6 0.00 0.00 0.00 47 1018.7
20260503231530 78 81 0.0 2.6 0.00 0.00 0.00 46 1018.6
20260503230029 77 27 0.0 2.6 0.00 0.00 0.00 46 1018.8
20260503224527 77 214 0.9 5.2 0.00 0.00 0.00 46 1018.8
20260503223027 78 169 0.9 5.2 0.00 0.00 0.00 45 1019.2
20260503221525 78 221 0.0 2.6 0.00 0.00 0.00 46 1019.0
20260503220039 77 59 0.0 2.6 0.00 0.00 0.00 45 1019.0
20260503214521 77 89 0.0 4.3 0.00 0.00 0.00 44 1019.4
20260503213019 77 335 0.0 1.7 0.00 0.00 0.00 45 1019.6
20260503211518 77 84 0.0 3.5 0.00 0.00 0.00 46 1019.7
20260503210015 77 30 0.0 4.3 0.00 0.00 0.00 44 1019.9
20260503204514 77 34 0.9 6.1 0.00 0.00 0.00 43 1020.1
20260503203025 78 66 0.9 3.5 0.00 0.00 0.00 42 1020.5
20260503201515 78 49 0.0 3.5 0.00 0.00 0.00 42 1020.7
20260503200010 78 68 0.0 2.6 0.00 0.00 0.00 44 1020.9
20260503194508 78 89 0.0 4.3 0.00 0.00 0.00 40 1021.0
20260503193009 79 217 0.0 5.2 0.00 0.00 0.00 44 1021.3
20260503191513 79 68 0.0 2.6 0.00 0.00 0.00 39 1021.5
20260503190005 78 77 0.9 2.6 0.00 0.00 0.00 37 1021.8
20260503184504 78 63 0.9 4.3 0.00 0.00 0.00 36 1021.9
20260503183002 78 49 0.0 3.5 0.00 0.00 0.00 40 1022.2
20260503181611 79 153 0.0 3.5 0.00 0.00 0.00 41 1022.4
20260503180059 78 205 0.0 4.3 0.00 0.00 0.00 38 1022.5
20260503174557 78 150 0.0 1.7 0.00 0.00 0.00 40 1022.8
20260503173101 77 85 0.9 3.5 0.00 0.00 0.00 41 1023.1
20260503171554 77 169 0.0 2.6 0.00 0.00 0.00 42 1023.2
20260503081617 57 89 0.0 0.0 0.00 0.00 0.00 88 1021.1
20260503080106 57 89 0.0 0.0 0.00 0.00 0.00 87 1020.9
20260503071544 58 89 0.0 0.0 0.00 0.00 0.00 86 1020.9
20260503054540 59 88 0.0 0.0 0.00 0.00 0.00 81 1020.9
20260503053032 60 89 0.0 0.0 0.00 0.00 0.00 81 1020.9
20260503051527 60 89 0.0 0.0 0.00 0.00 0.00 81 1020.8
20260503050034 61 89 0.0 0.0 0.00 0.00 0.00 78 1020.7
20260503044524 61 89 0.0 0.0 0.00 0.00 0.00 77 1020.6
20260503043024 62 89 0.0 0.0 0.00 0.00 0.00 76 1020.5
20260503041523 62 89 0.0 0.0 0.00 0.00 0.00 76 1020.6
20260503040021 62 89 0.0 0.0 0.00 0.00 0.00 74 1020.5
20260503034534 63 89 0.0 0.0 0.00 0.01 0.00 74 1020.3
20260503033028 63 89 0.0 0.0 0.00 0.01 0.00 75 1020.1
20260503031521 63 89 0.0 0.0 0.00 0.01 0.00 74 1020.0
20260503030020 64 89 0.0 0.0 0.00 0.01 0.00 73 1020.1
20260503024519 64 94 0.0 0.0 0.00 0.04 0.00 70 1020.0
20260503023018 65 94 0.0 0.0 0.00 0.04 0.00 68 1019.8
20260503021517 66 94 0.0 0.0 0.00 0.04 0.00 66 1019.7
20260503020018 67 94 0.0 0.0 0.00 0.04 0.00 63 1019.7
20260503014531 68 94 0.0 0.0 0.00 0.07 0.00 59 1019.4
20260503013024 69 94 0.0 0.0 0.00 0.07 0.00 59 1019.2
20260503011515 70 94 0.0 0.0 0.00 0.07 0.00 55 1019.2
20260503010015 71 97 0.0 0.0 0.00 0.07 0.00 54 1018.9
20260503004515 72 82 0.0 0.9 0.00 0.27 0.00 52 1018.7
20260503003015 73 89 0.0 1.7 0.00 0.27 0.00 52 1018.5
20260503001513 73 331 0.0 1.7 0.00 0.27 0.00 49 1018.5